GW2586 Weather Reports


time (UTC)temp
C
wind
direction
speed
KPH
gust
KPH
rain 1hr
cm
rain 24hr
cm
rain mn
cm
humidity
%
barometer
mb
20260506161539 15 215 1.6 8.0 0.18 0.18 0.18 92 1007.9
20260506160039 15 197 1.6 16.1 0.10 0.10 0.10 91 1008.1
20260506154546 15 270 3.2 12.9 0.05 0.05 0.05 89 1008.1
20260506153059 16 134 3.2 9.7 0.03 0.03 0.03 87 1008.2
20260506151544 16 271 1.6 11.3 0.00 0.00 0.00 87 1008.2
20260506150049 16 248 3.2 16.1 0.00 0.00 0.00 85 1008.5
20260506144538 16 269 6.4 14.5 0.00 0.00 0.00 83 1008.6
20260506143037 16 200 6.4 19.3 0.00 0.00 0.00 82 1008.8
20260506141539 16 223 6.4 22.5 0.00 0.00 0.00 81 1008.8
20260506140040 16 0 3.2 14.5 0.00 0.00 0.00 82 1008.7
20260506134539 16 0 4.8 17.7 0.00 0.00 0.00 82 1008.5
20260506133039 16 233 4.8 19.3 0.00 0.00 0.00 82 1008.6
20260506131541 16 199 1.6 12.9 0.00 0.00 0.00 83 1008.3
20260506130037 16 158 4.8 12.9 0.00 0.00 0.00 84 1008.5
20260506124544 15 259 4.8 20.9 0.00 0.00 0.00 84 1008.5
20260506123043 15 228 3.2 14.5 0.00 0.00 0.00 84 1008.7
20260506121542 15 294 1.6 17.7 0.00 0.00 0.00 84 1009.0
20260506120042 15 337 6.4 16.1 0.00 0.00 0.00 84 1008.9
20260506114540 15 259 3.2 12.9 0.00 0.00 0.00 84 1008.8
20260506113043 15 215 8.0 17.7 0.00 0.00 0.00 83 1008.7
20260506111540 15 293 3.2 17.7 0.00 0.00 0.00 83 1008.7
20260506110040 15 55 4.8 12.9 0.00 0.00 0.00 82 1008.6
20260506104537 15 210 0.0 12.9 0.00 0.00 0.00 82 1008.5
20260506103048 15 0 0.0 16.1 0.00 0.00 0.00 81 1008.5
20260506101540 15 197 3.2 20.9 0.00 0.00 0.00 80 1008.5
20260506100041 15 197 3.2 17.7 0.00 0.00 0.00 79 1008.4
20260506094542 15 245 1.6 9.7 0.00 0.00 0.00 78 1008.2
20260506093038 15 157 1.6 9.7 0.00 0.00 0.00 77 1008.2
20260506091550 16 61 3.2 11.3 0.00 0.00 0.00 75 1008.1
20260506090036 16 276 0.0 8.0 0.00 0.00 0.00 74 1008.2
20260506084544 16 278 1.6 12.9 0.00 0.00 0.00 72 1008.4
20260506083044 16 250 1.6 9.7 0.00 0.00 0.00 73 1008.5
20260506081538 16 49 0.0 6.4 0.00 0.00 0.00 72 1008.5
20260506073040 16 283 0.0 9.7 0.00 0.00 0.00 71 1008.6
20260506071544 16 274 0.0 6.4 0.00 0.00 0.00 70 1008.7
20260506061538 17 0 0.0 3.2 0.00 0.00 0.00 66 1009.1
20260506044542 18 232 3.2 9.7 0.00 0.00 0.00 61 1009.4
20260506043037 18 262 1.6 14.5 0.00 0.00 0.00 60 1009.3
20260506041542 18 210 3.2 12.9 0.00 0.00 0.00 59 1009.2
20260506040043 19 283 3.2 16.1 0.00 0.00 0.00 55 1009.1
20260506034552 20 139 1.6 14.5 0.00 0.00 0.00 51 1009.0
20260506033041 20 262 6.4 12.9 0.00 0.00 0.00 50 1008.9
20260506031539 20 269 4.8 12.9 0.00 0.00 0.00 49 1008.9
20260506030042 21 226 4.8 16.1 0.00 0.00 0.00 48 1008.9
20260506024600 21 284 4.8 14.5 0.00 0.00 0.00 46 1009.0
20260506023042 21 0 1.6 14.5 0.00 0.00 0.00 44 1009.1
20260506021540 21 262 3.2 14.5 0.00 0.00 0.00 44 1009.0
20260506020038 21 191 1.6 12.9 0.00 0.00 0.00 45 1009.0
20260506014538 22 256 4.8 12.9 0.00 0.00 0.00 44 1008.8
20260506013057 22 235 4.8 17.7 0.00 0.00 0.00 44 1008.6
20260506011544 22 226 9.7 22.5 0.00 0.00 0.00 43 1008.6
20260506010043 22 210 9.7 16.1 0.00 0.00 0.00 43 1008.3
20260506004541 22 165 6.4 17.7 0.00 0.00 0.00 43 1008.1
20260506003039 22 226 8.0 19.3 0.00 0.00 0.00 43 1007.8
20260506001539 22 133 8.0 20.9 0.00 0.00 0.00 43 1007.6
20260506000036 21 270 3.2 14.5 0.00 0.00 0.00 46 1007.4
20260505234538 20 0 0.0 1.6 0.00 0.00 0.00 55 1007.3
20260505233038 21 0 0.0 1.6 0.00 0.00 0.00 52 1007.3
20260505231543 22 221 4.8 11.3 0.00 0.00 0.00 46 1007.2
20260505230051 23 227 8.0 22.5 0.00 0.00 0.00 38 1007.0
20260505224541 23 178 12.9 22.5 0.00 0.00 0.00 37 1006.7
20260505223055 24 207 11.3 29.0 0.00 0.00 0.00 37 1006.7
20260505221540 24 203 12.9 29.0 0.00 0.00 0.00 36 1006.4
20260505220044 25 139 12.9 32.2 0.00 0.00 0.00 35 1006.2
20260505214540 25 184 14.5 29.0 0.00 0.00 0.00 34 1006.0
20260505213050 26 215 16.1 41.8 0.00 0.00 0.00 33 1006.2
20260505211538 25 150 12.9 35.4 0.00 0.00 0.00 34 1005.8
20260505210040 25 159 17.7 53.1 0.00 0.00 0.00 33 1005.6
20260505204540 25 209 20.9 35.4 0.00 0.00 0.00 33 1005.8
20260505203045 26 204 17.7 40.2 0.00 0.00 0.00 33 1006.1
20260505201542 25 253 17.7 40.2 0.00 0.00 0.00 33 1006.3
20260505200037 25 207 24.1 51.5 0.00 0.00 0.00 34 1005.9
20260505194540 26 186 12.9 35.4 0.00 0.00 0.00 36 1006.1
20260505193041 26 219 12.9 38.6 0.00 0.00 0.00 35 1006.4
20260505191538 26 197 16.1 37.0 0.00 0.00 0.00 36 1006.5
20260505190040 26 178 19.3 41.8 0.00 0.00 0.00 37 1006.6
20260505184538 25 196 19.3 43.5 0.00 0.00 0.00 36 1006.9
20260505183036 26 239 17.7 40.2 0.00 0.00 0.00 38 1006.8
20260505181543 25 253 19.3 59.5 0.00 0.00 0.00 36 1007.1
20260505180046 26 169 12.9 29.0 0.00 0.00 0.00 40 1007.0
20260505174541 26 225 17.7 35.4 0.00 0.00 0.00 41 1007.3
20260505173046 25 197 12.9 24.1 0.00 0.00 0.00 44 1007.4
20260505171538 25 20 8.0 29.0 0.00 0.00 0.00 45 1007.5
20260505170038 24 102 8.0 41.8 0.00 0.00 0.00 46 1007.8
20260505164550 24 169 11.3 32.2 0.00 0.00 0.00 47 1007.9
20260505163048 23 195 11.3 25.7 0.00 0.00 0.00 48 1008.1